Location: Abundant Grace Fellowship
(35.0349°N, 90.0924°W)
Time: 22:19:54
(UTC+00:00)

Okean 2 - Pass Details

Date: 18 January 2026
Orbit: 515 x 525 km, 82.5° (Epoch: 13 February)

Event Time Altitude Azimuth Distance (km) Brightness Sun altitude
Rises 00:08:04 0° 195° (SSW) 2,637 7.3 -11.1°
Reaches altitude 10° 00:10:13 10° 199° (SSW) 1,751 6.4 -11.6°
Maximum altitude 00:13:59 55° 278° (W) 629 4.0 -12.3°
Drops below altitude 10° 00:17:47 10° 357° (N) 1,757 5.8 -13.0°
Sets 00:19:57 0° 2° (N) 2,646 6.6 -13.5°
